Location: Unspecified
(43.4354°N, 0.0000°E)
Time: 07:22:24
(UTC+00:00)

A-11 Canister half - Pass Details

Date: 26 June 2019
Orbit: 1514 x 1685 km, 47.2° (Epoch: 19 July)

Event Time Altitude Azimuth Distance (km) Brightness Sun altitude
Rises 07:50:57 0° 201° (SSW) 4,924 11.5 35.1°
Reaches altitude 10° 07:54:32 10° 192° (SSW) 3,931 11.1 35.8°
Maximum altitude 08:03:09 34° 133° (SE) 2,505 11.3 37.4°
Drops below altitude 10° 08:11:35 10° 74° (ENE) 3,858 12.2 38.9°
Sets 08:15:02 0° 66° (ENE) 4,822 12.3 39.5°
